| time (UTC) | temp F | wind direction | speed MPH | gust MPH | rain 1hr in | rain 24hr in | rain mn in | humidity % | barometer mb |
| 20260508013033 | 69 | 298 | 10.0 | 23.0 | 0.00 | 0.00 | 0.00 | 24 | 1016.6 |
| 20260508011531 | 70 | 299 | 9.0 | 22.0 | 0.00 | 0.00 | 0.00 | 24 | 1016.7 |
| 20260508010153 | 69 | 301 | 9.0 | 19.0 | 0.00 | 0.00 | 0.00 | 23 | 1016.8 |
| 20260508010143 | 69 | 296 | 11.0 | 22.0 | 0.00 | 0.00 | 0.00 | 22 | 1016.7 |
| 20260508003035 | 70 | 298 | 11.0 | 20.0 | 0.00 | 0.00 | 0.00 | 22 | 1016.7 |
| 20260508000039 | 70 | 297 | 11.0 | 26.0 | 0.00 | 0.00 | 0.00 | 22 | 1016.6 |
| 20260507234536 | 71 | 300 | 11.0 | 24.0 | 0.00 | 0.00 | 0.00 | 21 | 1016.7 |
| 20260507233108 | 70 | 298 | 12.0 | 28.0 | 0.00 | 0.00 | 0.00 | 21 | 1016.6 |
| 20260507230034 | 70 | 293 | 13.0 | 25.0 | 0.00 | 0.00 | 0.00 | 25 | 1016.9 |
| 20260507223031 | 70 | 299 | 13.0 | 25.0 | 0.00 | 0.00 | 0.00 | 28 | 1017.1 |
| 20260507221537 | 69 | 295 | 13.0 | 30.0 | 0.00 | 0.00 | 0.00 | 30 | 1017.3 |
| 20260507214533 | 69 | 296 | 10.0 | 25.0 | 0.00 | 0.00 | 0.00 | 33 | 1017.7 |
| 20260507210032 | 68 | 296 | 13.0 | 25.0 | 0.00 | 0.00 | 0.00 | 38 | 1017.8 |
| 20260507203037 | 67 | 296 | 13.0 | 23.0 | 0.00 | 0.00 | 0.00 | 40 | 1018.0 |
| 20260507201536 | 67 | 290 | 13.0 | 28.0 | 0.00 | 0.00 | 0.00 | 40 | 1018.3 |
| 20260507200036 | 66 | 298 | 12.0 | 24.0 | 0.00 | 0.00 | 0.00 | 40 | 1018.5 |
| 20260507194532 | 65 | 293 | 13.0 | 24.0 | 0.00 | 0.00 | 0.00 | 43 | 1018.6 |
| 20260507193034 | 65 | 290 | 13.0 | 27.0 | 0.00 | 0.00 | 0.00 | 45 | 1018.7 |
| 20260507191534 | 64 | 293 | 11.0 | 22.0 | 0.00 | 0.00 | 0.00 | 47 | 1019.0 |
| 20260507190029 | 64 | 296 | 12.0 | 25.0 | 0.00 | 0.00 | 0.00 | 48 | 1019.4 |
| 20260507184536 | 63 | 294 | 7.0 | 14.0 | 0.00 | 0.00 | 0.00 | 52 | 1020.0 |
| 20260507181534 | 62 | 285 | 6.0 | 13.0 | 0.00 | 0.00 | 0.00 | 54 | 1020.2 |
| 20260507180031 | 61 | 278 | 6.0 | 14.0 | 0.00 | 0.00 | 0.00 | 55 | 1020.2 |
| 20260507174536 | 60 | 283 | 10.0 | 19.0 | 0.00 | 0.00 | 0.00 | 57 | 1020.2 |
| 20260507173034 | 59 | 290 | 8.0 | 22.0 | 0.00 | 0.00 | 0.00 | 60 | 1020.3 |
| 20260507171539 | 58 | 299 | 11.0 | 23.0 | 0.00 | 0.00 | 0.00 | 61 | 1020.2 |
| 20260507170033 | 57 | 302 | 13.0 | 25.0 | 0.00 | 0.00 | 0.00 | 62 | 1020.1 |
| 20260507164533 | 57 | 297 | 13.0 | 25.0 | 0.00 | 0.00 | 0.00 | 64 | 1020.0 |
| 20260507163037 | 56 | 292 | 13.0 | 27.0 | 0.00 | 0.00 | 0.00 | 65 | 1020.3 |
| 20260507160111 | 56 | 289 | 12.0 | 27.0 | 0.00 | 0.00 | 0.00 | 68 | 1020.4 |
| 20260507154534 | 55 | 291 | 13.0 | 26.0 | 0.00 | 0.00 | 0.00 | 70 | 1020.6 |
| 20260507153036 | 54 | 292 | 14.0 | 27.0 | 0.00 | 0.00 | 0.00 | 71 | 1020.6 |
| 20260507151536 | 54 | 297 | 13.0 | 25.0 | 0.00 | 0.00 | 0.00 | 72 | 1020.7 |
| 20260507150109 | 54 | 293 | 10.0 | 19.0 | 0.00 | 0.00 | 0.00 | 74 | 1020.9 |
| 20260507144537 | 53 | 295 | 10.0 | 19.0 | 0.00 | 0.00 | 0.00 | 76 | 1021.0 |
| 20260507143037 | 52 | 294 | 9.0 | 22.0 | 0.00 | 0.00 | 0.00 | 78 | 1020.9 |
| 20260507141536 | 52 | 297 | 8.0 | 19.0 | 0.00 | 0.00 | 0.00 | 79 | 1020.8 |
| 20260507140033 | 52 | 306 | 9.0 | 20.0 | 0.00 | 0.00 | 0.00 | 79 | 1020.3 |
| 20260507133032 | 52 | 303 | 10.0 | 21.0 | 0.00 | 0.00 | 0.00 | 79 | 1020.2 |
| 20260507131531 | 52 | 306 | 8.0 | 20.0 | 0.00 | 0.00 | 0.00 | 79 | 1020.2 |
| 20260507130035 | 52 | 306 | 8.0 | 22.0 | 0.00 | 0.00 | 0.00 | 79 | 1020.0 |
| 20260507124532 | 53 | 300 | 9.0 | 18.0 | 0.00 | 0.00 | 0.00 | 78 | 1020.0 |
| 20260507123035 | 53 | 303 | 10.0 | 21.0 | 0.00 | 0.00 | 0.00 | 78 | 1020.1 |
| 20260507121532 | 53 | 299 | 9.0 | 22.0 | 0.00 | 0.00 | 0.00 | 78 | 1020.2 |
| 20260507114650 | 54 | 302 | 10.0 | 21.0 | 0.00 | 0.00 | 0.00 | 77 | 1020.1 |
| 20260507114641 | 54 | 294 | 10.0 | 20.0 | 0.00 | 0.00 | 0.00 | 77 | 1020.0 |
| 20260507111531 | 54 | 294 | 12.0 | 26.0 | 0.00 | 0.00 | 0.00 | 77 | 1019.8 |
| 20260507110108 | 54 | 291 | 12.0 | 22.0 | 0.00 | 0.00 | 0.00 | 77 | 1019.8 |
| 20260507103031 | 55 | 293 | 12.0 | 23.0 | 0.00 | 0.00 | 0.00 | 77 | 1019.9 |
| 20260507100046 | 55 | 292 | 11.0 | 22.0 | 0.00 | 0.00 | 0.00 | 77 | 1019.9 |
| 20260507091609 | 56 | 297 | 10.0 | 20.0 | 0.00 | 0.00 | 0.00 | 76 | 1020.0 |
| 20260507090034 | 56 | 295 | 11.0 | 24.0 | 0.00 | 0.00 | 0.00 | 76 | 1020.1 |
| 20260507083037 | 56 | 298 | 11.0 | 23.0 | 0.00 | 0.00 | 0.00 | 76 | 1020.0 |
| 20260507080032 | 57 | 302 | 8.0 | 20.0 | 0.00 | 0.00 | 0.00 | 77 | 1020.2 |
| 20260507074609 | 57 | 302 | 6.0 | 17.0 | 0.00 | 0.00 | 0.00 | 77 | 1020.3 |
| 20260507073036 | 57 | 296 | 6.0 | 12.0 | 0.00 | 0.00 | 0.00 | 76 | 1020.4 |
| 20260507071536 | 57 | 289 | 7.0 | 17.0 | 0.00 | 0.00 | 0.00 | 76 | 1020.5 |
| 20260507070108 | 58 | 294 | 9.0 | 18.0 | 0.00 | 0.00 | 0.00 | 76 | 1020.5 |
| 20260507064531 | 58 | 298 | 8.0 | 14.0 | 0.00 | 0.00 | 0.00 | 75 | 1020.5 |
| 20260507063036 | 59 | 296 | 9.0 | 19.0 | 0.00 | 0.00 | 0.00 | 75 | 1020.5 |
| 20260507061534 | 59 | 301 | 7.0 | 14.0 | 0.00 | 0.00 | 0.00 | 75 | 1020.5 |
| 20260507060033 | 59 | 288 | 7.0 | 17.0 | 0.00 | 0.00 | 0.00 | 74 | 1020.6 |
| 20260507054536 | 60 | 287 | 7.0 | 16.0 | 0.00 | 0.00 | 0.00 | 74 | 1020.7 |
| 20260507051607 | 60 | 270 | 7.0 | 17.0 | 0.00 | 0.00 | 0.00 | 74 | 1021.0 |
| 20260507050037 | 60 | 269 | 7.0 | 17.0 | 0.00 | 0.00 | 0.00 | 73 | 1020.8 |
| 20260507044535 | 61 | 264 | 5.0 | 13.0 | 0.00 | 0.00 | 0.00 | 73 | 1020.7 |
| 20260507043035 | 61 | 260 | 5.0 | 12.0 | 0.00 | 0.00 | 0.00 | 71 | 1020.7 |
| 20260507041532 | 62 | 280 | 6.0 | 18.0 | 0.00 | 0.00 | 0.00 | 70 | 1020.5 |
| 20260507033035 | 64 | 303 | 5.0 | 16.0 | 0.00 | 0.00 | 0.00 | 62 | 1019.8 |
| 20260507031536 | 64 | 281 | 5.0 | 12.0 | 0.00 | 0.00 | 0.00 | 59 | 1019.7 |
| 20260507024610 | 66 | 274 | 6.0 | 16.0 | 0.00 | 0.00 | 0.00 | 55 | 1019.5 |
| 20260507020036 | 67 | 273 | 10.0 | 25.0 | 0.00 | 0.00 | 0.00 | 54 | 1019.3 |
| 20260507014534 | 67 | 274 | 9.0 | 19.0 | 0.00 | 0.00 | 0.00 | 54 | 1019.4 |